This is the latest recevied weather packets stored in our database for station/object KB1YYC. If no packets are shown the sender has not sent any weather packets the latest 10 day(s).
| Time | Temp. | Humidity | Pressure | Rain* | Wind** | Luminosity | Snow |
|---|---|---|---|---|---|---|---|
| 1777952113 | 15.56° C | 53% | 1008.3 hPa | 0 mm | - | 0 W/m² | - |
| 1777951811 | 15.56° C | 53% | 1008.3 hPa | 0 mm | - | 0 W/m² | - |
| 1777951508 | 15° C | 53% | 1008.3 hPa | 0 mm | - | 0 W/m² | - |
| 1777951205 | 15.56° C | 53% | 1008.2 hPa | 0 mm | - | 0 W/m² | - |
| 1777950902 | 15.56° C | 53% | 1008.3 hPa | 0 mm | - | 0 W/m² | - |
| 1777950598 | 15.56° C | 51% | 1008.1 hPa | 0 mm | - | 0 W/m² | - |
| 1777950295 | 15.56° C | 52% | 1008.2 hPa | 0 mm | - | 0 W/m² | - |
| 1777949990 | 15.56° C | 50% | 1008.1 hPa | 0 mm | - | 0 W/m² | - |
| 1777949687 | 15.56° C | 50% | 1008.2 hPa | 0 mm | - | 0 W/m² | - |
| 1777949386 | 15.56° C | 49% | 1008.1 hPa | 0 mm | - | 0 W/m² | - |
| 1777949083 | 15.56° C | 49% | 1008.3 hPa | 0 mm | - | 0 W/m² | - |
| 1777948780 | 15.56° C | 48% | 1008.2 hPa | 0 mm | - | 0 W/m² | - |
| 1777948477 | 15.56° C | 48% | 1007.9 hPa | 0 mm | - | 0 W/m² | - |
| 1777948174 | 14.44° C | 50% | 1008.1 hPa | 0 mm | - | 0 W/m² | - |
| 1777947872 | 13.33° C | 56% | 1007.9 hPa | 0 mm | - | 0 W/m² | - |
| 1777947569 | 13.33° C | 58% | 1007.9 hPa | 0 mm | - | 0 W/m² | - |
| 1777947265 | 12.78° C | 59% | 1007.8 hPa | 0 mm | - | 0 W/m² | - |
| 1777946961 | 12.78° C | 61% | 1007.9 hPa | 0 mm | - | 0 W/m² | - |
| 1777946656 | 12.78° C | 60% | 1007.8 hPa | 0 mm | - | 0 W/m² | - |
| 1777946354 | 12.78° C | 61% | 1007.7 hPa | 0 mm | - | 0 W/m² | - |
| 1777946051 | 12.78° C | 63% | 1007.8 hPa | 0 mm | - | 0 W/m² | - |
| 1777945748 | 12.78° C | 62% | 1007.8 hPa | 0 mm | - | 0 W/m² | - |
| 1777945445 | 12.22° C | 62% | 1007.7 hPa | 0 mm | - | 0 W/m² | - |
| 1777945142 | 12.22° C | 67% | 1007.6 hPa | 0 mm | - | 0 W/m² | - |
| 1777944838 | 12.22° C | 65% | 1007.7 hPa | 0 mm | - | 0 W/m² | - |
* Rain latest hour (hover to see other rain measurements)
** Current wind speed in m/s (hover to see current wind gust speed)